| time (UTC) | temp F | wind direction | speed MPH | gust MPH | rain 1hr in | rain 24hr in | rain mn in | humidity % | barometer mb |
| 20260905144135 | 83 | 221 | 6.0 | 7.0 | 0.00 | 0.00 | 0.00 | 42 | 1012.8 |
| 20260905143637 | 83 | 231 | 3.0 | 7.0 | 0.00 | 0.00 | 0.00 | 43 | 1012.8 |
| 20260905143139 | 83 | 195 | 4.0 | 7.0 | 0.00 | 0.00 | 0.00 | 44 | 1012.8 |
| 20260905142638 | 83 | 209 | 5.0 | 8.0 | 0.00 | 0.00 | 0.00 | 44 | 1012.8 |
| 20260905142140 | 83 | 205 | 4.0 | 7.0 | 0.00 | 0.00 | 0.00 | 45 | 1012.8 |
| 20260905141641 | 83 | 186 | 3.0 | 4.0 | 0.00 | 0.00 | 0.00 | 45 | 1011.8 |
| 20260905141140 | 83 | 307 | 3.0 | 6.0 | 0.00 | 0.00 | 0.00 | 46 | 1011.8 |
| 20260905140642 | 83 | 324 | 3.0 | 5.0 | 0.00 | 0.00 | 0.00 | 46 | 1011.8 |
| 20260905140144 | 83 | 291 | 3.0 | 6.0 | 0.00 | 0.00 | 0.00 | 47 | 1011.8 |
| 20260905135642 | 82 | 233 | 0.0 | 6.0 | 0.00 | 0.00 | 0.00 | 49 | 1011.8 |
| 20260905135125 | 81 | 207 | 4.0 | 7.0 | 0.00 | 0.00 | 0.00 | 50 | 1011.8 |
| 20260905134627 | 81 | 227 | 4.0 | 6.0 | 0.00 | 0.00 | 0.00 | 48 | 1011.8 |
| 20260905134126 | 82 | 239 | 3.0 | 4.0 | 0.00 | 0.00 | 0.00 | 48 | 1011.8 |
| 20260905133628 | 82 | 226 | 0.0 | 4.0 | 0.00 | 0.00 | 0.00 | 49 | 1011.8 |
| 20260905133019 | 81 | 233 | 3.0 | 5.0 | 0.00 | 0.00 | 0.00 | 52 | 1011.8 |
| 20260905132518 | 81 | 232 | 0.0 | 6.0 | 0.00 | 0.00 | 0.00 | 52 | 1011.8 |
| 20260905132019 | 81 | 225 | 4.0 | 7.0 | 0.00 | 0.00 | 0.00 | 54 | 1011.8 |
| 20260905131521 | 81 | 229 | 5.0 | 5.0 | 0.00 | 0.00 | 0.00 | 54 | 1011.8 |
| 20260905131020 | 81 | 262 | 3.0 | 5.0 | 0.00 | 0.00 | 0.00 | 55 | 1011.8 |
| 20260905130522 | 81 | 229 | 0.0 | 5.0 | 0.00 | 0.00 | 0.00 | 57 | 1011.8 |
| 20260905130024 | 80 | 231 | 0.0 | 4.0 | 0.00 | 0.00 | 0.00 | 58 | 1011.8 |
| 20260905125522 | 80 | 194 | 3.0 | 4.0 | 0.00 | 0.00 | 0.00 | 59 | 1011.8 |
| 20260905125024 | 80 | 194 | 0.0 | 4.0 | 0.00 | 0.00 | 0.00 | 60 | 1011.8 |
| 20260905124526 | 79 | 195 | 0.0 | 5.0 | 0.00 | 0.00 | 0.00 | 61 | 1010.8 |
| 20260905124025 | 79 | 196 | 0.0 | 4.0 | 0.00 | 0.00 | 0.00 | 61 | 1010.8 |
| 20260905123526 | 79 | 192 | 3.0 | 4.0 | 0.00 | 0.00 | 0.00 | 61 | 1010.8 |
| 20260905123018 | 79 | 195 | 0.0 | 5.0 | 0.00 | 0.00 | 0.00 | 61 | 1010.8 |
| 20260905122517 | 79 | 193 | 3.0 | 4.0 | 0.00 | 0.00 | 0.00 | 62 | 1010.8 |
| 20260905121950 | 79 | 189 | 3.0 | 4.0 | 0.00 | 0.00 | 0.00 | 62 | 1010.8 |
| 20260905121715 | 79 | 188 | 0.0 | 5.0 | 0.00 | 0.00 | 0.00 | 62 | 1010.8 |
| 20260905121452 | 79 | 188 | 0.0 | 5.0 | 0.00 | 0.00 | 0.00 | 62 | 1010.8 |
| 20260905120951 | 79 | 188 | 0.0 | 7.0 | 0.00 | 0.00 | 0.00 | 61 | 1010.8 |
| 20260905120452 | 79 | 151 | 0.0 | 5.0 | 0.00 | 0.00 | 0.00 | 61 | 1010.8 |
| 20260905115954 | 79 | 209 | 3.0 | 6.0 | 0.00 | 0.00 | 0.00 | 61 | 1010.8 |
| 20260905115453 | 79 | 209 | 3.0 | 5.0 | 0.00 | 0.00 | 0.00 | 61 | 1010.8 |
| 20260905114955 | 79 | 199 | 3.0 | 6.0 | 0.00 | 0.00 | 0.00 | 61 | 1010.8 |
| 20260905114457 | 79 | 199 | 3.0 | 5.0 | 0.00 | 0.00 | 0.00 | 61 | 1010.8 |
| 20260905113955 | 79 | 196 | 3.0 | 6.0 | 0.00 | 0.00 | 0.00 | 60 | 1010.8 |
| 20260905113452 | 79 | 205 | 4.0 | 7.0 | 0.00 | 0.00 | 0.00 | 61 | 1010.8 |
| 20260905112954 | 79 | 187 | 3.0 | 7.0 | 0.00 | 0.00 | 0.00 | 61 | 1010.8 |
| 20260905112448 | 79 | 201 | 4.0 | 7.0 | 0.00 | 0.00 | 0.00 | 60 | 1010.8 |
| 20260905111946 | 79 | 206 | 5.0 | 6.0 | 0.00 | 0.00 | 0.00 | 59 | 1010.8 |
| 20260905111447 | 80 | 195 | 4.0 | 5.0 | 0.00 | 0.00 | 0.00 | 58 | 1010.8 |
| 20260905110946 | 80 | 182 | 4.0 | 4.0 | 0.00 | 0.00 | 0.00 | 57 | 1010.8 |
| 20260905110448 | 80 | 214 | 3.0 | 4.0 | 0.00 | 0.00 | 0.00 | 58 | 1010.8 |
| 20260905105950 | 80 | 216 | 0.0 | 4.0 | 0.00 | 0.00 | 0.00 | 58 | 1010.8 |
| 20260905105448 | 80 | 216 | 0.0 | 4.0 | 0.00 | 0.00 | 0.00 | 58 | 1010.8 |
| 20260905104950 | 80 | 215 | 0.0 | 4.0 | 0.00 | 0.00 | 0.00 | 58 | 1010.8 |
| 20260905104452 | 80 | 216 | 0.0 | 5.0 | 0.00 | 0.00 | 0.00 | 59 | 1010.8 |
| 20260905103951 | 80 | 216 | 3.0 | 6.0 | 0.00 | 0.00 | 0.00 | 58 | 1010.8 |
| 20260905103453 | 80 | 217 | 3.0 | 6.0 | 0.00 | 0.00 | 0.00 | 57 | 1010.8 |
| 20260905102954 | 80 | 221 | 3.0 | 7.0 | 0.00 | 0.00 | 0.00 | 57 | 1010.8 |
| 20260905102453 | 80 | 231 | 0.0 | 7.0 | 0.00 | 0.00 | 0.00 | 56 | 1010.8 |
| 20260905101955 | 80 | 218 | 0.0 | 8.0 | 0.00 | 0.00 | 0.00 | 55 | 1010.8 |
| 20260905101457 | 80 | 214 | 4.0 | 8.0 | 0.00 | 0.00 | 0.00 | 55 | 1010.8 |
| 20260905100955 | 80 | 202 | 0.0 | 9.0 | 0.00 | 0.00 | 0.00 | 55 | 1010.8 |
| 20260905100457 | 80 | 207 | 6.0 | 9.0 | 0.00 | 0.00 | 0.00 | 54 | 1010.8 |
| 20260905095959 | 81 | 256 | 6.0 | 7.0 | 0.00 | 0.00 | 0.00 | 53 | 1010.8 |
| 20260905095453 | 81 | 161 | 4.0 | 8.0 | 0.00 | 0.00 | 0.00 | 53 | 1010.8 |
| 20260905094955 | 81 | 218 | 5.0 | 9.0 | 0.00 | 0.00 | 0.00 | 53 | 1010.8 |
| 20260905094457 | 81 | 219 | 6.0 | 8.0 | 0.00 | 0.00 | 0.00 | 52 | 1010.8 |
| 20260905093956 | 81 | 176 | 5.0 | 10.0 | 0.00 | 0.00 | 0.00 | 52 | 1010.8 |
| 20260905093458 | 81 | 172 | 5.0 | 7.0 | 0.00 | 0.00 | 0.00 | 51 | 1010.8 |
| 20260905092959 | 81 | 216 | 4.0 | 8.0 | 0.00 | 0.00 | 0.00 | 51 | 1010.8 |
| 20260905092458 | 81 | 207 | 6.0 | 7.0 | 0.00 | 0.00 | 0.00 | 51 | 1010.8 |
| 20260905091955 | 81 | 217 | 4.0 | 9.0 | 0.00 | 0.00 | 0.00 | 51 | 1010.8 |
| 20260905091457 | 81 | 173 | 5.0 | 7.0 | 0.00 | 0.00 | 0.00 | 51 | 1010.8 |
| 20260905090955 | 81 | 207 | 5.0 | 7.0 | 0.00 | 0.00 | 0.00 | 51 | 1010.8 |
| 20260905090457 | 81 | 206 | 6.0 | 7.0 | 0.00 | 0.00 | 0.00 | 50 | 1010.8 |
| 20260905085959 | 81 | 179 | 3.0 | 9.0 | 0.00 | 0.00 | 0.00 | 50 | 1010.8 |
| 20260905085453 | 81 | 217 | 5.0 | 8.0 | 0.00 | 0.00 | 0.00 | 50 | 1010.8 |
| 20260905084955 | 81 | 202 | 5.0 | 9.0 | 0.00 | 0.00 | 0.00 | 50 | 1010.8 |
| 20260905084457 | 81 | 151 | 4.0 | 10.0 | 0.00 | 0.00 | 0.00 | 50 | 1010.8 |
| 20260905083955 | 81 | 208 | 4.0 | 9.0 | 0.00 | 0.00 | 0.00 | 49 | 1010.8 |
| 20260905083457 | 82 | 228 | 7.0 | 8.0 | 0.00 | 0.00 | 0.00 | 48 | 1010.8 |
| 20260905082959 | 82 | 198 | 5.0 | 9.0 | 0.00 | 0.00 | 0.00 | 48 | 1010.8 |
| 20260905082458 | 82 | 208 | 5.0 | 8.0 | 0.00 | 0.00 | 0.00 | 47 | 1010.8 |
| 20260905081959 | 82 | 207 | 4.0 | 9.0 | 0.00 | 0.00 | 0.00 | 47 | 1010.8 |
| 20260905081501 | 82 | 184 | 5.0 | 7.0 | 0.00 | 0.00 | 0.00 | 46 | 1010.8 |
| 20260905081000 | 82 | 205 | 3.0 | 7.0 | 0.00 | 0.00 | 0.00 | 45 | 1010.8 |
| 20260905080502 | 82 | 208 | 4.0 | 7.0 | 0.00 | 0.00 | 0.00 | 45 | 1010.8 |
| 20260905075959 | 82 | 226 | 4.0 | 6.0 | 0.00 | 0.00 | 0.00 | 44 | 1010.8 |
| 20260905075457 | 82 | 186 | 3.0 | 9.0 | 0.00 | 0.00 | 0.00 | 43 | 1010.8 |
| 20260905074949 | 83 | 170 | 3.0 | 10.0 | 0.00 | 0.00 | 0.00 | 43 | 1010.8 |
| 20260905074451 | 83 | 213 | 8.0 | 10.0 | 0.00 | 0.00 | 0.00 | 43 | 1010.8 |
| 20260905073950 | 83 | 212 | 7.0 | 10.0 | 0.00 | 0.00 | 0.00 | 42 | 1010.8 |
| 20260905073452 | 83 | 178 | 8.0 | 10.0 | 0.00 | 0.00 | 0.00 | 42 | 1010.8 |
| 20260905072953 | 83 | 209 | 6.0 | 9.0 | 0.00 | 0.00 | 0.00 | 41 | 1010.8 |
| 20260905072452 | 83 | 200 | 5.0 | 10.0 | 0.00 | 0.00 | 0.00 | 41 | 1010.8 |
| 20260905071954 | 83 | 177 | 4.0 | 10.0 | 0.00 | 0.00 | 0.00 | 40 | 1010.8 |
| 20260905071456 | 83 | 217 | 5.0 | 8.0 | 0.00 | 0.00 | 0.00 | 40 | 1010.8 |
| 20260905070954 | 83 | 193 | 6.0 | 8.0 | 0.00 | 0.00 | 0.00 | 40 | 1010.8 |
| 20260905070456 | 83 | 212 | 6.0 | 10.0 | 0.00 | 0.00 | 0.00 | 39 | 1010.8 |
| 20260905065954 | 83 | 217 | 6.0 | 10.0 | 0.00 | 0.00 | 0.00 | 39 | 1010.8 |
| 20260905065447 | 83 | 163 | 5.0 | 8.0 | 0.00 | 0.00 | 0.00 | 39 | 1010.8 |
| 20260905064949 | 83 | 211 | 4.0 | 10.0 | 0.00 | 0.00 | 0.00 | 39 | 1010.8 |
| 20260905064451 | 84 | 205 | 6.0 | 8.0 | 0.00 | 0.00 | 0.00 | 38 | 1010.8 |
| 20260905063950 | 84 | 201 | 5.0 | 10.0 | 0.00 | 0.00 | 0.00 | 38 | 1010.8 |
| 20260905063451 | 84 | 141 | 6.0 | 7.0 | 0.00 | 0.00 | 0.00 | 38 | 1010.8 |
| 20260905062953 | 84 | 212 | 4.0 | 8.0 | 0.00 | 0.00 | 0.00 | 37 | 1010.8 |
| 20260905062452 | 84 | 167 | 5.0 | 9.0 | 0.00 | 0.00 | 0.00 | 37 | 1010.8 |
| 20260905061954 | 84 | 147 | 4.0 | 8.0 | 0.00 | 0.00 | 0.00 | 36 | 1010.8 |
| 20260905061456 | 84 | 200 | 4.0 | 9.0 | 0.00 | 0.00 | 0.00 | 35 | 1010.8 |
| 20260905060954 | 84 | 216 | 6.0 | 10.0 | 0.00 | 0.00 | 0.00 | 35 | 1010.8 |
| 20260905060456 | 84 | 207 | 6.0 | 8.0 | 0.00 | 0.00 | 0.00 | 35 | 1010.8 |
| 20260905055958 | 85 | 207 | 5.0 | 7.0 | 0.00 | 0.00 | 0.00 | 35 | 1010.8 |
| 20260905055457 | 85 | 158 | 5.0 | 8.0 | 0.00 | 0.00 | 0.00 | 35 | 1010.8 |
| 20260905054954 | 85 | 160 | 5.0 | 10.0 | 0.00 | 0.00 | 0.00 | 35 | 1010.8 |
| 20260905054456 | 85 | 212 | 5.0 | 9.0 | 0.00 | 0.00 | 0.00 | 35 | 1010.8 |
| 20260905053955 | 85 | 151 | 5.0 | 8.0 | 0.00 | 0.00 | 0.00 | 34 | 1010.8 |
| 20260905053456 | 85 | 206 | 5.0 | 10.0 | 0.00 | 0.00 | 0.00 | 33 | 1010.8 |
| 20260905052958 | 85 | 164 | 4.0 | 9.0 | 0.00 | 0.00 | 0.00 | 33 | 1010.8 |
| 20260905052452 | 85 | 215 | 5.0 | 10.0 | 0.00 | 0.00 | 0.00 | 33 | 1010.8 |
| 20260905051954 | 85 | 197 | 6.0 | 9.0 | 0.00 | 0.00 | 0.00 | 32 | 1010.8 |
| 20260905051456 | 85 | 147 | 5.0 | 9.0 | 0.00 | 0.00 | 0.00 | 32 | 1010.8 |
| 20260905050955 | 85 | 160 | 6.0 | 7.0 | 0.00 | 0.00 | 0.00 | 32 | 1010.8 |
| 20260905050457 | 86 | 153 | 5.0 | 8.0 | 0.00 | 0.00 | 0.00 | 31 | 1010.8 |
| 20260905045958 | 86 | 146 | 5.0 | 8.0 | 0.00 | 0.00 | 0.00 | 31 | 1010.8 |
| 20260905045457 | 86 | 143 | 5.0 | 9.0 | 0.00 | 0.00 | 0.00 | 31 | 1010.8 |
| 20260905044959 | 86 | 151 | 5.0 | 9.0 | 0.00 | 0.00 | 0.00 | 30 | 1010.8 |
| 20260905044456 | 86 | 205 | 5.0 | 7.0 | 0.00 | 0.00 | 0.00 | 30 | 1010.8 |
| 20260905043955 | 87 | 187 | 4.0 | 9.0 | 0.00 | 0.00 | 0.00 | 30 | 1010.8 |
| 20260905043457 | 87 | 198 | 5.0 | 10.0 | 0.00 | 0.00 | 0.00 | 29 | 1010.8 |
| 20260905042959 | 87 | 174 | 4.0 | 10.0 | 0.00 | 0.00 | 0.00 | 29 | 1010.8 |
| 20260905042453 | 87 | 120 | 6.0 | 12.0 | 0.00 | 0.00 | 0.00 | 29 | 1010.8 |
| 20260905041955 | 87 | 225 | 7.0 | 10.0 | 0.00 | 0.00 | 0.00 | 28 | 1010.8 |
| 20260905041457 | 87 | 139 | 5.0 | 10.0 | 0.00 | 0.00 | 0.00 | 28 | 1010.8 |
| 20260905040955 | 87 | 219 | 5.0 | 11.0 | 0.00 | 0.00 | 0.00 | 27 | 1010.8 |
| 20260905040457 | 87 | 141 | 6.0 | 9.0 | 0.00 | 0.00 | 0.00 | 27 | 1010.8 |
| 20260905035959 | 88 | 128 | 5.0 | 10.0 | 0.00 | 0.00 | 0.00 | 25 | 1010.8 |
| 20260905035458 | 88 | 195 | 5.0 | 12.0 | 0.00 | 0.00 | 0.00 | 25 | 1010.8 |
| 20260905034959 | 88 | 215 | 7.0 | 12.0 | 0.00 | 0.00 | 0.00 | 24 | 1010.8 |
| 20260905034501 | 88 | 139 | 4.0 | 10.0 | 0.00 | 0.00 | 0.00 | 23 | 1010.8 |
| 20260905034000 | 88 | 210 | 6.0 | 12.0 | 0.00 | 0.00 | 0.00 | 22 | 1010.8 |
| 20260905033502 | 89 | 179 | 4.0 | 10.0 | 0.00 | 0.00 | 0.00 | 21 | 1010.8 |
| 20260905033004 | 89 | 181 | 4.0 | 10.0 | 0.00 | 0.00 | 0.00 | 21 | 1010.8 |
| 20260905032502 | 89 | 214 | 5.0 | 10.0 | 0.00 | 0.00 | 0.00 | 20 | 1010.8 |
| 20260905032004 | 89 | 169 | 6.0 | 11.0 | 0.00 | 0.00 | 0.00 | 20 | 1010.8 |
| 20260905031506 | 90 | 222 | 5.0 | 11.0 | 0.00 | 0.00 | 0.00 | 20 | 1010.8 |
| 20260905031005 | 90 | 156 | 6.0 | 12.0 | 0.00 | 0.00 | 0.00 | 19 | 1010.8 |
| 20260905030506 | 90 | 132 | 7.0 | 11.0 | 0.00 | 0.00 | 0.00 | 19 | 1010.8 |
| 20260905030008 | 90 | 127 | 6.0 | 10.0 | 0.00 | 0.00 | 0.00 | 19 | 1010.8 |
| 20260905025507 | 90 | 135 | 5.0 | 12.0 | 0.00 | 0.00 | 0.00 | 18 | 1010.8 |
| 20260905025009 | 91 | 129 | 5.0 | 8.0 | 0.00 | 0.00 | 0.00 | 18 | 1010.8 |
| 20260905024511 | 91 | 170 | 4.0 | 7.0 | 0.00 | 0.00 | 0.00 | 18 | 1009.8 |
| 20260905024009 | 91 | 147 | 4.0 | 9.0 | 0.00 | 0.00 | 0.00 | 18 | 1009.8 |
| 20260905023511 | 91 | 129 | 4.0 | 9.0 | 0.00 | 0.00 | 0.00 | 18 | 1009.8 |
| 20260905023013 | 91 | 111 | 5.0 | 11.0 | 0.00 | 0.00 | 0.00 | 18 | 1009.8 |
| 20260905022512 | 91 | 128 | 7.0 | 8.0 | 0.00 | 0.00 | 0.00 | 18 | 1009.8 |
| 20260905022013 | 92 | 114 | 6.0 | 11.0 | 0.00 | 0.00 | 0.00 | 18 | 1009.8 |
| 20260905021515 | 92 | 131 | 4.0 | 11.0 | 0.00 | 0.00 | 0.00 | 18 | 1009.8 |
| 20260905021004 | 92 | 131 | 7.0 | 12.0 | 0.00 | 0.00 | 0.00 | 18 | 1009.8 |
| 20260905020506 | 92 | 129 | 7.0 | 10.0 | 0.00 | 0.00 | 0.00 | 18 | 1009.8 |
| 20260905020008 | 92 | 142 | 7.0 | 9.0 | 0.00 | 0.00 | 0.00 | 17 | 1009.8 |
| 20260905015507 | 92 | 155 | 6.0 | 11.0 | 0.00 | 0.00 | 0.00 | 17 | 1009.8 |
| 20260905015003 | 92 | 122 | 8.0 | 9.0 | 0.00 | 0.00 | 0.00 | 17 | 1009.8 |
| 20260905014505 | 93 | 136 | 5.0 | 9.0 | 0.00 | 0.00 | 0.00 | 17 | 1008.8 |
| 20260905014004 | 93 | 124 | 5.0 | 10.0 | 0.00 | 0.00 | 0.00 | 17 | 1008.8 |
| 20260905013506 | 93 | 153 | 7.0 | 10.0 | 0.00 | 0.00 | 0.00 | 17 | 1008.8 |
| 20260905013003 | 93 | 123 | 5.0 | 11.0 | 0.00 | 0.00 | 0.00 | 17 | 1008.8 |
| 20260905012502 | 93 | 127 | 7.0 | 13.0 | 0.00 | 0.00 | 0.00 | 17 | 1008.8 |
| 20260905012004 | 93 | 138 | 7.0 | 12.0 | 0.00 | 0.00 | 0.00 | 17 | 1008.8 |
| 20260905011506 | 93 | 138 | 7.0 | 10.0 | 0.00 | 0.00 | 0.00 | 17 | 1008.8 |
| 20260905011000 | 93 | 114 | 7.0 | 13.0 | 0.00 | 0.00 | 0.00 | 17 | 1008.8 |
| 20260905010501 | 94 | 143 | 10.0 | 14.0 | 0.00 | 0.00 | 0.00 | 17 | 1008.8 |
| 20260905010003 | 94 | 133 | 8.0 | 14.0 | 0.00 | 0.00 | 0.00 | 17 | 1008.8 |
| 20260905005457 | 94 | 109 | 9.0 | 13.0 | 0.00 | 0.00 | 0.00 | 17 | 1008.8 |
| 20260905004959 | 94 | 109 | 9.0 | 15.0 | 0.00 | 0.00 | 0.00 | 16 | 1008.8 |
| 20260905004501 | 94 | 129 | 10.0 | 14.0 | 0.00 | 0.00 | 0.00 | 16 | 1008.8 |
| 20260905003959 | 94 | 134 | 10.0 | 14.0 | 0.00 | 0.00 | 0.00 | 16 | 1008.8 |
| 20260905003501 | 94 | 122 | 9.0 | 16.0 | 0.00 | 0.00 | 0.00 | 16 | 1008.8 |
| 20260905003003 | 95 | 113 | 8.0 | 13.0 | 0.00 | 0.00 | 0.00 | 16 | 1008.8 |
| 20260905002502 | 95 | 124 | 11.0 | 14.0 | 0.00 | 0.00 | 0.00 | 16 | 1008.8 |
| 20260905001959 | 95 | 125 | 8.0 | 11.0 | 0.00 | 0.00 | 0.00 | 16 | 1008.8 |
| 20260905001501 | 96 | 234 | 5.0 | 8.0 | 0.00 | 0.00 | 0.00 | 16 | 1007.8 |
| 20260905000959 | 96 | 156 | 5.0 | 10.0 | 0.00 | 0.00 | 0.00 | 13 | 1007.8 |
| 20260905000501 | 96 | 203 | 6.0 | 10.0 | 0.00 | 0.00 | 0.00 | 13 | 1007.8 |
| 20260905000003 | 96 | 123 | 8.0 | 9.0 | 0.00 | 0.00 | 0.00 | 13 | 1007.8 |
| 20260904235502 | 96 | 135 | 5.0 | 10.0 | 0.00 | 0.00 | 0.00 | 13 | 1007.8 |
| 20260904235003 | 97 | 138 | 7.0 | 10.0 | 0.00 | 0.00 | 0.00 | 16 | 1007.8 |
| 20260904234505 | 97 | 175 | 4.0 | 11.0 | 0.00 | 0.00 | 0.00 | 16 | 1008.8 |
| 20260904234004 | 97 | 131 | 7.0 | 10.0 | 0.00 | 0.00 | 0.00 | 16 | 1008.8 |
| 20260904233506 | 97 | 129 | 5.0 | 10.0 | 0.00 | 0.00 | 0.00 | 16 | 1008.8 |
| 20260904233008 | 97 | 138 | 6.0 | 14.0 | 0.00 | 0.00 | 0.00 | 16 | 1007.8 |
| 20260904232506 | 97 | 136 | 4.0 | 11.0 | 0.00 | 0.00 | 0.00 | 16 | 1007.8 |
| 20260904232008 | 97 | 156 | 9.0 | 9.0 | 0.00 | 0.00 | 0.00 | 16 | 1007.8 |
| 20260904231510 | 98 | 211 | 5.0 | 8.0 | 0.00 | 0.00 | 0.00 | 15 | 1008.8 |
| 20260904231008 | 97 | 118 | 5.0 | 12.0 | 0.00 | 0.00 | 0.00 | 16 | 1008.8 |
| 20260904230510 | 97 | 118 | 9.0 | 12.0 | 0.00 | 0.00 | 0.00 | 16 | 1008.8 |
| 20260904230012 | 97 | 118 | 9.0 | 12.0 | 0.00 | 0.00 | 0.00 | 16 | 1008.8 |
| 20260904225506 | 96 | 117 | 6.0 | 12.0 | 0.00 | 0.00 | 0.00 | 16 | 1008.8 |
| 20260904225008 | 96 | 153 | 7.0 | 10.0 | 0.00 | 0.00 | 0.00 | 16 | 1008.8 |
| 20260904224510 | 97 | 136 | 7.0 | 10.0 | 0.00 | 0.00 | 0.00 | 16 | 1008.8 |
| 20260904224004 | 97 | 128 | 7.0 | 11.0 | 0.00 | 0.00 | 0.00 | 16 | 1008.8 |
| 20260904223506 | 97 | 200 | 7.0 | 10.0 | 0.00 | 0.00 | 0.00 | 13 | 1008.8 |
| 20260904223008 | 97 | 132 | 6.0 | 9.0 | 0.00 | 0.00 | 0.00 | 13 | 1008.8 |
| 20260904222506 | 97 | 133 | 4.0 | 12.0 | 0.00 | 0.00 | 0.00 | 13 | 1008.8 |
| 20260904222004 | 97 | 158 | 9.0 | 12.0 | 0.00 | 0.00 | 0.00 | 13 | 1008.8 |
| 20260904221506 | 97 | 114 | 6.0 | 9.0 | 0.00 | 0.00 | 0.00 | 13 | 1008.8 |
| 20260904221004 | 97 | 212 | 4.0 | 9.0 | 0.00 | 0.00 | 0.00 | 13 | 1008.8 |
| 20260904220506 | 98 | 113 | 7.0 | 12.0 | 0.00 | 0.00 | 0.00 | 13 | 1008.8 |
| 20260904220008 | 97 | 124 | 8.0 | 9.0 | 0.00 | 0.00 | 0.00 | 16 | 1008.8 |
| 20260904215507 | 98 | 189 | 4.0 | 10.0 | 0.00 | 0.00 | 0.00 | 15 | 1008.8 |
| 20260904215008 | 98 | 194 | 5.0 | 9.0 | 0.00 | 0.00 | 0.00 | 15 | 1008.8 |
| 20260904214510 | 98 | 237 | 5.0 | 11.0 | 0.00 | 0.00 | 0.00 | 15 | 1008.8 |
| 20260904214009 | 98 | 132 | 6.0 | 10.0 | 0.00 | 0.00 | 0.00 | 15 | 1008.8 |
| 20260904213511 | 98 | 133 | 6.0 | 12.0 | 0.00 | 0.00 | 0.00 | 15 | 1008.8 |
| 20260904213013 | 97 | 149 | 6.0 | 11.0 | 0.00 | 0.00 | 0.00 | 16 | 1008.8 |
| 20260904212511 | 98 | 125 | 5.0 | 10.0 | 0.00 | 0.00 | 0.00 | 15 | 1008.8 |
| 20260904212013 | 97 | 228 | 6.0 | 10.0 | 0.00 | 0.00 | 0.00 | 15 | 1008.8 |
| 20260904211515 | 97 | 130 | 7.0 | 10.0 | 0.00 | 0.00 | 0.00 | 16 | 1008.8 |
| 20260904211013 | 97 | 136 | 6.0 | 13.0 | 0.00 | 0.00 | 0.00 | 16 | 1008.8 |
| 20260904210515 | 97 | 168 | 10.0 | 11.0 | 0.00 | 0.00 | 0.00 | 16 | 1008.8 |
| 20260904210006 | 96 | 218 | 7.0 | 8.0 | 0.00 | 0.00 | 0.00 | 16 | 1009.8 |
| 20260904205505 | 96 | 151 | 3.0 | 13.0 | 0.00 | 0.00 | 0.00 | 16 | 1009.8 |
| 20260904205007 | 97 | 134 | 10.0 | 11.0 | 0.00 | 0.00 | 0.00 | 16 | 1009.8 |
| 20260904204508 | 97 | 126 | 7.0 | 12.0 | 0.00 | 0.00 | 0.00 | 16 | 1009.8 |
| 20260904204006 | 96 | 127 | 8.0 | 9.0 | 0.00 | 0.00 | 0.00 | 16 | 1009.8 |
| 20260904203508 | 96 | 165 | 6.0 | 11.0 | 0.00 | 0.00 | 0.00 | 16 | 1009.8 |
| 20260904203010 | 97 | 171 | 5.0 | 10.0 | 0.00 | 0.00 | 0.00 | 16 | 1009.8 |
| 20260904202508 | 97 | 192 | 4.0 | 10.0 | 0.00 | 0.00 | 0.00 | 16 | 1009.8 |
| 20260904202010 | 96 | 117 | 7.0 | 13.0 | 0.00 | 0.00 | 0.00 | 16 | 1009.8 |
| 20260904201512 | 96 | 64 | 0.0 | 13.0 | 0.00 | 0.00 | 0.00 | 16 | 1009.8 |
| 20260904201010 | 96 | 133 | 9.0 | 10.0 | 0.00 | 0.00 | 0.00 | 16 | 1009.8 |
| 20260904200512 | 95 | 160 | 4.0 | 11.0 | 0.00 | 0.00 | 0.00 | 17 | 1009.8 |
| 20260904200014 | 96 | 203 | 4.0 | 12.0 | 0.00 | 0.00 | 0.00 | 17 | 1009.8 |
| 20260904195512 | 95 | 124 | 9.0 | 9.0 | 0.00 | 0.00 | 0.00 | 17 | 1009.8 |
| 20260904195014 | 97 | 215 | 6.0 | 10.0 | 0.00 | 0.00 | 0.00 | 16 | 1009.8 |
| 20260904194516 | 96 | 174 | 0.0 | 9.0 | 0.00 | 0.00 | 0.00 | 16 | 1010.8 |
| 20260904194014 | 95 | 179 | 4.0 | 10.0 | 0.00 | 0.00 | 0.00 | 17 | 1010.8 |
| 20260904193516 | 95 | 119 | 4.0 | 12.0 | 0.00 | 0.00 | 0.00 | 17 | 1010.8 |
| 20260904193018 | 94 | 124 | 9.0 | 12.0 | 0.00 | 0.00 | 0.00 | 17 | 1010.8 |
| 20260904192517 | 94 | 144 | 7.0 | 12.0 | 0.00 | 0.00 | 0.00 | 17 | 1010.8 |
| 20260904192018 | 94 | 213 | 9.0 | 11.0 | 0.00 | 0.00 | 0.00 | 17 | 1010.8 |
| 20260904191520 | 94 | 191 | 6.0 | 13.0 | 0.00 | 0.00 | 0.00 | 17 | 1010.8 |
| 20260904191019 | 93 | 146 | 7.0 | 13.0 | 0.00 | 0.00 | 0.00 | 17 | 1010.8 |
| 20260904190516 | 94 | 194 | 5.0 | 9.0 | 0.00 | 0.00 | 0.00 | 16 | 1010.8 |
| 20260904190018 | 94 | 210 | 4.0 | 10.0 | 0.00 | 0.00 | 0.00 | 17 | 1010.8 |
| 20260904185516 | 94 | 193 | 7.0 | 9.0 | 0.00 | 0.00 | 0.00 | 17 | 1010.8 |
| 20260904185018 | 94 | 202 | 4.0 | 9.0 | 0.00 | 0.00 | 0.00 | 17 | 1010.8 |
| 20260904184520 | 93 | 184 | 4.0 | 11.0 | 0.00 | 0.00 | 0.00 | 18 | 1010.8 |
| 20260904184014 | 93 | 125 | 7.0 | 11.0 | 0.00 | 0.00 | 0.00 | 18 | 1010.8 |
| 20260904183516 | 92 | 216 | 8.0 | 10.0 | 0.00 | 0.00 | 0.00 | 18 | 1010.8 |
| 20260904183017 | 92 | 158 | 5.0 | 10.0 | 0.00 | 0.00 | 0.00 | 19 | 1011.8 |
| 20260904182516 | 93 | 135 | 3.0 | 8.0 | 0.00 | 0.00 | 0.00 | 18 | 1011.8 |
| 20260904182018 | 93 | 121 | 5.0 | 11.0 | 0.00 | 0.00 | 0.00 | 19 | 1011.8 |
| 20260904181520 | 92 | 200 | 4.0 | 11.0 | 0.00 | 0.00 | 0.00 | 19 | 1011.8 |
| 20260904181018 | 93 | 137 | 4.0 | 10.0 | 0.00 | 0.00 | 0.00 | 19 | 1011.8 |
| 20260904180520 | 92 | 104 | 6.0 | 15.0 | 0.00 | 0.00 | 0.00 | 21 | 1011.8 |
| 20260904180022 | 91 | 182 | 7.0 | 11.0 | 0.00 | 0.00 | 0.00 | 21 | 1011.8 |
| 20260904175520 | 93 | 261 | 6.0 | 7.0 | 0.00 | 0.00 | 0.00 | 20 | 1011.8 |
| 20260904175022 | 92 | 167 | 4.0 | 12.0 | 0.00 | 0.00 | 0.00 | 20 | 1011.8 |
| 20260904174524 | 91 | 198 | 4.0 | 12.0 | 0.00 | 0.00 | 0.00 | 21 | 1011.8 |
| 20260904174023 | 90 | 220 | 6.0 | 12.0 | 0.00 | 0.00 | 0.00 | 21 | 1011.8 |
| 20260904173520 | 91 | 213 | 7.0 | 8.0 | 0.00 | 0.00 | 0.00 | 20 | 1011.8 |
| 20260904173021 | 92 | 307 | 4.0 | 9.0 | 0.00 | 0.00 | 0.00 | 21 | 1011.8 |
| 20260904172520 | 91 | 176 | 5.0 | 11.0 | 0.00 | 0.00 | 0.00 | 22 | 1011.8 |
| 20260904172022 | 90 | 185 | 4.0 | 10.0 | 0.00 | 0.00 | 0.00 | 24 | 1011.8 |
| 20260904171519 | 90 | 153 | 3.0 | 13.0 | 0.00 | 0.00 | 0.00 | 27 | 1011.8 |
| 20260904171016 | 89 | 211 | 7.0 | 9.0 | 0.00 | 0.00 | 0.00 | 26 | 1011.8 |
| 20260904170518 | 90 | 218 | 4.0 | 7.0 | 0.00 | 0.00 | 0.00 | 25 | 1011.8 |
| 20260904170016 | 90 | 73 | 0.0 | 9.0 | 0.00 | 0.00 | 0.00 | 25 | 1011.8 |
| 20260904165514 | 89 | 125 | 7.0 | 8.0 | 0.00 | 0.00 | 0.00 | 25 | 1011.8 |
| 20260904165016 | 88 | 178 | 4.0 | 10.0 | 0.00 | 0.00 | 0.00 | 24 | 1011.8 |
| 20260904164518 | 89 | 240 | 4.0 | 12.0 | 0.00 | 0.00 | 0.00 | 25 | 1012.8 |
| 20260904164017 | 87 | 218 | 5.0 | 11.0 | 0.00 | 0.00 | 0.00 | 26 | 1012.8 |
| 20260904163518 | 87 | 194 | 8.0 | 11.0 | 0.00 | 0.00 | 0.00 | 25 | 1012.8 |
| 20260904163020 | 87 | 212 | 6.0 | 9.0 | 0.00 | 0.00 | 0.00 | 28 | 1012.8 |
| 20260904162514 | 88 | 216 | 4.0 | 12.0 | 0.00 | 0.00 | 0.00 | 30 | 1012.8 |
| 20260904162016 | 87 | 208 | 7.0 | 10.0 | 0.00 | 0.00 | 0.00 | 31 | 1012.8 |
| 20260904161509 | 86 | 166 | 6.0 | 13.0 | 0.00 | 0.00 | 0.00 | 37 | 1012.8 |
| 20260904161007 | 86 | 132 | 9.0 | 11.0 | 0.00 | 0.00 | 0.00 | 35 | 1012.8 |
| 20260904160509 | 86 | 173 | 7.0 | 13.0 | 0.00 | 0.00 | 0.00 | 35 | 1012.8 |
| 20260904155510 | 85 | 211 | 7.0 | 10.0 | 0.00 | 0.00 | 0.00 | 38 | 1012.8 |
| 20260904155007 | 85 | 206 | 5.0 | 12.0 | 0.00 | 0.00 | 0.00 | 42 | 1012.8 |
| 20260904154509 | 84 | 233 | 8.0 | 12.0 | 0.00 | 0.00 | 0.00 | 43 | 1012.8 |
| 20260904154007 | 84 | 197 | 6.0 | 10.0 | 0.00 | 0.00 | 0.00 | 41 | 1012.8 |
| 20260904153509 | 84 | 192 | 6.0 | 8.0 | 0.00 | 0.00 | 0.00 | 40 | 1012.8 |
| 20260904153011 | 84 | 147 | 4.0 | 9.0 | 0.00 | 0.00 | 0.00 | 46 | 1011.8 |
| 20260904152510 | 83 | 174 | 3.0 | 12.0 | 0.00 | 0.00 | 0.00 | 53 | 1011.8 |
| 20260904152012 | 82 | 218 | 11.0 | 10.0 | 0.00 | 0.00 | 0.00 | 54 | 1011.8 |
| 20260904151513 | 82 | 217 | 4.0 | 12.0 | 0.00 | 0.00 | 0.00 | 57 | 1011.8 |
| 20260904151012 | 82 | 220 | 7.0 | 10.0 | 0.00 | 0.00 | 0.00 | 58 | 1011.8 |
| 20260904150514 | 82 | 209 | 4.0 | 9.0 | 0.00 | 0.00 | 0.00 | 58 | 1011.8 |
| 20260904150016 | 82 | 221 | 6.0 | 9.0 | 0.00 | 0.00 | 0.00 | 61 | 1011.8 |
| 20260904145514 | 82 | 196 | 4.0 | 6.0 | 0.00 | 0.00 | 0.00 | 63 | 1011.8 |
| 20260904145016 | 82 | 178 | 3.0 | 7.0 | 0.00 | 0.00 | 0.00 | 65 | 1011.8 |